User: anonymous
Location: Unspecified
(0.0000°N, 0.0000°E)
Time: 05:50:33
(UTC+02:00)
Language:

Iridium 4 Rocket - Orbit

View from above orbital plane
View from above orbital plane
View from above satellite
View from above satellite

Ground track
Ground track

The orbit data is extracted from the following two-line orbital elements,

1 24797U 97020F   14105.98329104  .00000426  00000-0  87880-4 0  6415
2 24797 086.8973 057.2636 0227254 216.3274 214.7635 14.43018977890850
Epoch (UTC): 15 April 2014 23:35:56
Eccentricity: 0.0227254
inclination: 86.8973°
perigee height: 586 km
apogee height: 910 km
right ascension of ascending node: 57.2636°
argument of perigee: 216.3274°
revolutions per day: 14.43018977
mean anomaly at epoch: 214.7635°
orbit number at epoch: 89085

The dashed part of the orbit path shows where the satellite is in the earth's shadow,  

DLR